星链-31020 (STARLINK-31020 )

导读

STARLINK-31020是美国SpaceX公司星链(Starlink)项目的卫星,于2023年12月7日发射,是星链大规模低轨卫星互联网星座的组成部分。星链旨在通过近地轨道卫星群为全球提供高速低延迟宽带服务,STARLINK-31020延续了星链技术架构,助力拓展全球网络覆盖,服务偏远地区连接、特殊场景通信等应用,同时也延续了星链部署带来的轨道利用与天文观测相关讨论。

Basic Information
目录编号:
58509
目录名称:
STARLINK-31020
国际标识:
2023-191B
轨道中心:
EARTH
卫星名称:
星链-31020
卫星全名:
星链-31020 (STARLINK-31020 )
卫星状态:
在轨 (已飞行1002 天)
发射日期:
2023-12-07 UTC
国别 :
美国 (US)
星等 :
--
Orbit Information
数据来源 国际轨道数据
星历时间: 2026-09-04T20:56:24+0800
8小时前
查看轨道信息
半长轴: 6861.172km
偏心率: 0.0001217
轨道倾角: 43.004°
近地点辐角 284.197°
升交点赤经 180.239°
平近点角 75.875°
近地点: 482.199km
远地点: 483.871km
周期: 94.266分钟
每日圈数: 15.27585
Detailed Information
固有亮度:
5
最大亮度:
0.3
卫星平台:
Starlink v2.0 mini
覆盖范围:
全球
运营商:
太空探索技术公司
运营商所在国:
美国
制造商(研发单位):
太空探索技术公司
制造商所在国:
美国
使用方式:
暂无
Satellite Introduction
星链(Starlink)计划是由太空探索技术公司(SpaceX)提出的一个巨型低轨卫星互联网星座项目,计划在2019年至2024年间在太空搭建由约1.2万颗卫星组成的“星链”网络,其中1584颗将部署在地球上空550千米处的近地轨道,并从2020年开始工作。该卫星仍在工作。
2D Orbit Map
3D Orbit Map
Orbit Altitude Analysis Chart
Orbit Inclination Analysis Chart
Orbit Comprehensive Analysis Chart
View Comprehensive Chart
Conjunction Data List
Event ID Objects TCA Miss Dist (km) Collision Risk Probability Collision Risk Index (CRI) Action
CDM_260906-162505-850906-712721
2026-09-06T
16:25:49+0000
0.897 km
远距离
1.858313E-5 中风险 0.6
CDM_260906-195805-850906-733221
2026-09-06T
19:58:01+0000
1.096 km
极远距离
1.489207E-5 中风险 0.58
CDM_260906-213205-850906-733221
2026-09-06T
21:32:10+0000
1.440 km
极远距离
5.843083E-6 低风险 0.5
CDM_260907-010305-850906-712721
2026-09-07T
01:03:39+0000
1.314 km
极远距离
5.032211E-6 低风险 0.49
CDM_260906-232905-850906-712721
2026-09-06T
23:29:30+0000
1.765 km
极远距离
2.034637E-6 低风险 0.41
CDM_260905-135305-850906-267022
2026-09-05T
13:53:22+0000
2.391 km
极远距离
1.852464E-6 低风险 0.4
CDM_260906-175905-850906-712721
2026-09-06T
17:59:58+0000
1.926 km
极远距离
1.619677E-6 低风险 0.39
CDM_260906-182305-850906-733221
2026-09-06T
18:23:51+0000
2.891 km
极远距离
1.115517E-6 低风险 0.36